Terminal Aerodrome Forecast
Issued by NWS

Home | Current Version | Previous Version | Graphics & Text | Print | Product List | Glossary On
Versions: 1 2 3 4 5 6 7 8 9 10 11 12 13 14 15 16 17
000
FTUS43 KOAX 241618 AAA
TAFCDR
TAF AMD
KCDR 241618Z 2416/2512 26010KT P6SM BKN070
     FM241800 27015KT P6SM VCSH SCT020 OVC060
     FM250200 30018G28KT P6SM SCT030 BKN050=

USA.gov is the U.S. government's official web portal to all federal, state and local government web resources and services.